Time,TemperatureF,DewpointF,PressureIn,WindDirection,WindDirectionDegrees,WindSpeedMPH,WindSpeedGustMPH,Humidity,HourlyPrecipIn,Conditions,Clouds,dailyrainin,SoftwareType,DateUTC
2013-08-18 00:02:00,61.6,48.1,30.12,North,0,0.0,0.0,61,0.00,,,0.00,WUHU216HW,2013-08-18 07:02:00,
2013-08-18 00:07:00,61.6,48.1,30.12,North,0,0.0,0.0,61,0.00,,,0.00,WUHU216HW,2013-08-18 07:07:00,
2013-08-18 00:12:00,61.6,48.1,30.12,North,0,0.0,0.0,61,0.00,,,0.00,WUHU216HW,2013-08-18 07:12:00,
2013-08-18 00:17:00,61.4,48.3,30.12,North,0,0.0,0.0,62,0.00,,,0.00,WUHU216HW,2013-08-18 07:17:00,
2013-08-18 00:22:00,60.8,47.8,30.12,North,0,0.0,0.0,62,0.00,,,0.00,WUHU216HW,2013-08-18 07:22:00,
2013-08-18 00:27:00,60.5,47.9,30.12,North,0,0.0,0.0,63,0.00,,,0.00,WUHU216HW,2013-08-18 07:27:00,
2013-08-18 00:32:00,60.5,48.2,30.13,North,0,0.0,0.0,64,0.00,,,0.00,WUHU216HW,2013-08-18 07:32:00,
2013-08-18 00:37:00,60.5,48.2,30.13,North,0,0.0,0.0,64,0.00,,,0.00,WUHU216HW,2013-08-18 07:37:00,
2013-08-18 00:43:00,60.5,48.2,30.13,North,0,0.0,0.0,64,0.00,,,0.00,WUHU216HW,2013-08-18 07:43:00,
2013-08-18 00:48:00,59.9,47.7,30.12,North,0,0.0,0.0,64,0.00,,,0.00,WUHU216HW,2013-08-18 07:48:00,
2013-08-18 00:53:00,59.6,47.3,30.13,North,0,0.0,0.0,64,0.00,,,0.00,WUHU216HW,2013-08-18 07:53:00,
2013-08-18 00:58:00,59.6,47.3,30.13,North,0,0.0,0.0,64,0.00,,,0.00,WUHU216HW,2013-08-18 07:58:00,
2013-08-18 01:03:00,59.2,47.0,30.13,North,0,0.0,0.0,64,0.00,,,0.00,WUHU216HW,2013-08-18 08:03:00,
2013-08-18 01:08:00,59.2,47.4,30.13,North,0,0.0,0.0,65,0.00,,,0.00,WUHU216HW,2013-08-18 08:08:00,
2013-08-18 01:13:00,59.4,47.2,30.12,North,0,0.0,0.0,64,0.00,,,0.00,WUHU216HW,2013-08-18 08:13:00,
2013-08-18 01:18:00,59.6,47.3,30.12,North,0,0.0,0.0,64,0.00,,,0.00,WUHU216HW,2013-08-18 08:18:00,
2013-08-18 01:23:00,59.6,47.3,30.12,North,0,0.0,0.0,64,0.00,,,0.00,WUHU216HW,2013-08-18 08:23:00,
2013-08-18 01:28:00,59.0,46.8,30.12,North,0,0.0,0.0,64,0.00,,,0.00,WUHU216HW,2013-08-18 08:28:00,
2013-08-18 01:33:00,58.5,46.7,30.12,North,0,0.0,0.0,65,0.00,,,0.00,WUHU216HW,2013-08-18 08:33:00,
2013-08-18 01:38:00,57.8,46.4,30.12,North,0,0.0,0.0,66,0.00,,,0.00,WUHU216HW,2013-08-18 08:38:00,
2013-08-18 01:43:00,57.1,46.5,30.12,North,0,0.0,0.0,68,0.00,,,0.00,WUHU216HW,2013-08-18 08:43:00,
2013-08-18 01:48:00,56.9,46.5,30.12,North,0,0.0,0.0,68,0.00,,,0.00,WUHU216HW,2013-08-18 08:48:00,
2013-08-18 01:53:00,56.7,46.3,30.12,North,0,0.0,0.0,68,0.00,,,0.00,WUHU216HW,2013-08-18 08:53:00,
2013-08-18 01:58:00,56.9,46.5,30.12,North,0,0.0,0.0,68,0.00,,,0.00,WUHU216HW,2013-08-18 08:58:00,
2013-08-18 02:03:00,57.1,46.2,30.12,North,0,0.0,0.0,67,0.00,,,0.00,WUHU216HW,2013-08-18 09:03:00,
2013-08-18 02:08:00,57.2,46.4,30.12,North,0,0.0,0.0,67,0.00,,,0.00,WUHU216HW,2013-08-18 09:08:00,
2013-08-18 02:13:00,57.2,46.4,30.12,North,0,0.0,0.0,67,0.00,,,0.00,WUHU216HW,2013-08-18 09:13:00,
2013-08-18 02:18:00,57.2,46.4,30.12,North,0,0.0,0.0,67,0.00,,,0.00,WUHU216HW,2013-08-18 09:18:00,
2013-08-18 02:23:00,57.1,46.2,30.12,North,0,0.0,0.0,67,0.00,,,0.00,WUHU216HW,2013-08-18 09:23:00,
2013-08-18 02:28:00,56.9,46.5,30.12,North,0,0.0,0.0,68,0.00,,,0.00,WUHU216HW,2013-08-18 09:28:00,
2013-08-18 02:34:00,56.9,46.5,30.12,North,0,0.0,0.0,68,0.00,,,0.00,WUHU216HW,2013-08-18 09:34:00,
2013-08-18 02:39:00,56.9,46.5,30.12,North,0,0.0,0.0,68,0.00,,,0.00,WUHU216HW,2013-08-18 09:39:00,
2013-08-18 02:44:00,56.9,46.8,30.12,North,0,0.0,0.0,69,0.00,,,0.00,WUHU216HW,2013-08-18 09:44:00,
2013-08-18 02:49:00,56.7,46.6,30.12,North,0,0.0,0.0,69,0.00,,,0.00,WUHU216HW,2013-08-18 09:49:00,
2013-08-18 02:54:00,56.5,46.4,30.12,North,0,0.0,0.0,69,0.00,,,0.00,WUHU216HW,2013-08-18 09:54:00,
2013-08-18 02:59:00,56.7,47.1,30.12,North,0,0.0,0.0,70,0.00,,,0.00,WUHU216HW,2013-08-18 09:59:00,
2013-08-18 03:04:00,56.9,46.8,30.12,North,0,0.0,0.0,69,0.00,,,0.00,WUHU216HW,2013-08-18 10:04:00,
2013-08-18 03:09:00,56.9,46.8,30.12,North,0,0.0,0.0,69,0.00,,,0.00,WUHU216HW,2013-08-18 10:09:00,
2013-08-18 03:14:00,56.9,46.5,30.12,North,0,0.0,0.0,68,0.00,,,0.00,WUHU216HW,2013-08-18 10:14:00,
2013-08-18 03:19:00,56.5,46.4,30.12,North,0,0.0,0.0,69,0.00,,,0.00,WUHU216HW,2013-08-18 10:19:00,
2013-08-18 03:24:00,56.3,45.9,30.13,North,0,0.0,0.0,68,0.00,,,0.00,WUHU216HW,2013-08-18 10:24:00,
2013-08-18 03:29:00,56.3,46.3,30.13,North,0,0.0,0.0,69,0.00,,,0.00,WUHU216HW,2013-08-18 10:29:00,
2013-08-18 03:34:00,56.3,46.3,30.13,North,0,0.0,0.0,69,0.00,,,0.00,WUHU216HW,2013-08-18 10:34:00,
2013-08-18 03:39:00,56.3,47.1,30.13,North,0,0.0,0.0,71,0.00,,,0.00,WUHU216HW,2013-08-18 10:39:00,
2013-08-18 03:44:00,56.5,47.3,30.13,North,0,0.0,0.0,71,0.00,,,0.00,WUHU216HW,2013-08-18 10:44:00,
2013-08-18 03:49:00,56.5,47.3,30.13,North,0,0.0,0.0,71,0.00,,,0.00,WUHU216HW,2013-08-18 10:49:00,
2013-08-18 03:54:00,56.5,47.6,30.13,North,0,0.0,0.0,72,0.00,,,0.00,WUHU216HW,2013-08-18 10:54:00,
2013-08-18 03:59:00,56.3,47.8,30.13,North,0,0.0,0.0,73,0.00,,,0.00,WUHU216HW,2013-08-18 10:59:00,
2013-08-18 04:04:00,56.2,47.3,30.13,North,0,0.0,0.0,72,0.00,,,0.00,WUHU216HW,2013-08-18 11:04:00,
2013-08-18 04:09:00,56.2,46.9,30.13,North,0,0.0,0.0,71,0.00,,,0.00,WUHU216HW,2013-08-18 11:09:00,
2013-08-18 04:14:00,56.2,46.9,30.13,North,0,0.0,0.0,71,0.00,,,0.00,WUHU216HW,2013-08-18 11:14:00,
2013-08-18 04:19:00,56.0,46.4,30.13,North,0,0.0,0.0,70,0.00,,,0.00,WUHU216HW,2013-08-18 11:19:00,
2013-08-18 04:25:00,56.0,46.4,30.13,North,0,0.0,0.0,70,0.00,,,0.00,WUHU216HW,2013-08-18 11:25:00,
2013-08-18 04:30:00,56.0,46.4,30.12,North,0,0.0,0.0,70,0.00,,,0.00,WUHU216HW,2013-08-18 11:30:00,
2013-08-18 04:35:00,55.8,46.5,30.13,North,0,0.0,0.0,71,0.00,,,0.00,WUHU216HW,2013-08-18 11:35:00,
2013-08-18 04:40:00,55.8,46.3,30.13,North,0,0.0,0.0,70,0.00,,,0.00,WUHU216HW,2013-08-18 11:40:00,
2013-08-18 04:45:00,55.4,46.3,30.13,North,0,0.0,0.0,71,0.00,,,0.00,WUHU216HW,2013-08-18 11:45:00,
2013-08-18 04:50:00,55.1,46.6,30.13,North,0,0.0,0.0,73,0.00,,,0.00,WUHU216HW,2013-08-18 11:50:00,
2013-08-18 04:55:00,54.9,46.5,30.13,North,0,0.0,0.0,73,0.00,,,0.00,WUHU216HW,2013-08-18 11:55:00,
2013-08-18 05:00:00,54.9,46.5,30.13,North,0,0.0,0.0,73,0.00,,,0.00,WUHU216HW,2013-08-18 12:00:00,
2013-08-18 05:05:00,54.7,46.3,30.13,North,0,0.0,0.0,73,0.00,,,0.00,WUHU216HW,2013-08-18 12:05:00,
2013-08-18 05:10:00,54.7,46.3,30.13,North,0,0.0,0.0,73,0.00,,,0.00,WUHU216HW,2013-08-18 12:10:00,
2013-08-18 05:15:00,54.5,46.5,30.13,North,0,0.0,0.0,74,0.00,,,0.00,WUHU216HW,2013-08-18 12:15:00,
2013-08-18 05:20:00,54.4,45.9,30.13,North,0,0.0,0.0,73,0.00,,,0.00,WUHU216HW,2013-08-18 12:20:00,
2013-08-18 05:25:00,54.4,46.3,30.13,North,0,0.0,0.0,74,0.00,,,0.00,WUHU216HW,2013-08-18 12:25:00,
2013-08-18 05:30:00,54.4,46.3,30.13,North,0,0.0,0.0,74,0.00,,,0.00,WUHU216HW,2013-08-18 12:30:00,
2013-08-18 05:35:00,54.4,45.9,30.13,North,0,0.0,0.0,73,0.00,,,0.00,WUHU216HW,2013-08-18 12:35:00,
2013-08-18 05:40:00,54.4,45.9,30.13,North,0,0.0,0.0,73,0.00,,,0.00,WUHU216HW,2013-08-18 12:40:00,
2013-08-18 05:45:00,54.4,45.9,30.13,North,0,0.0,0.0,73,0.00,,,0.00,WUHU216HW,2013-08-18 12:45:00,
2013-08-18 05:50:00,54.4,46.3,30.13,North,0,0.0,0.0,74,0.00,,,0.00,WUHU216HW,2013-08-18 12:50:00,
2013-08-18 05:55:00,54.4,45.9,30.14,North,0,0.0,0.0,73,0.00,,,0.00,WUHU216HW,2013-08-18 12:55:00,
2013-08-18 06:00:00,54.4,45.9,30.14,North,0,0.0,0.0,73,0.00,,,0.00,WUHU216HW,2013-08-18 13:00:00,
2013-08-18 06:06:00,54.4,45.9,30.14,North,0,0.0,0.0,73,0.00,,,0.00,WUHU216HW,2013-08-18 13:06:00,
2013-08-18 06:11:00,54.2,46.1,30.14,North,0,0.0,0.0,74,0.00,,,0.00,WUHU216HW,2013-08-18 13:11:00,
2013-08-18 06:16:00,54.2,46.1,30.14,North,0,0.0,0.0,74,0.00,,,0.00,WUHU216HW,2013-08-18 13:16:00,
2013-08-18 06:21:00,54.2,46.1,30.14,North,0,0.0,0.0,74,0.00,,,0.00,WUHU216HW,2013-08-18 13:21:00,
2013-08-18 06:26:00,54.2,46.1,30.14,North,0,0.0,0.0,74,0.00,,,0.00,WUHU216HW,2013-08-18 13:26:00,
2013-08-18 06:31:00,54.0,45.9,30.14,North,0,0.0,0.0,74,0.00,,,0.00,WUHU216HW,2013-08-18 13:31:00,
2013-08-18 06:36:00,53.6,45.9,30.14,North,0,0.0,0.0,75,0.00,,,0.00,WUHU216HW,2013-08-18 13:36:00,
2013-08-18 06:41:00,53.3,45.5,30.14,North,0,0.0,0.0,75,0.00,,,0.00,WUHU216HW,2013-08-18 13:41:00,
2013-08-18 06:46:00,52.9,45.5,30.14,North,0,0.0,0.0,76,0.00,,,0.00,WUHU216HW,2013-08-18 13:46:00,
2013-08-18 06:51:00,52.9,45.5,30.14,North,0,0.0,0.0,76,0.00,,,0.00,WUHU216HW,2013-08-18 13:51:00,
2013-08-18 06:56:00,52.9,45.2,30.14,North,0,0.0,0.0,75,0.00,,,0.00,WUHU216HW,2013-08-18 13:56:00,
2013-08-18 07:01:00,53.1,45.0,30.14,North,0,0.0,0.0,74,0.00,,,0.00,WUHU216HW,2013-08-18 14:01:00,
2013-08-18 07:06:00,53.3,45.2,30.14,North,0,0.0,0.0,74,0.00,,,0.00,WUHU216HW,2013-08-18 14:06:00,
2013-08-18 07:11:00,53.6,44.8,30.14,North,0,0.0,0.0,72,0.00,,,0.00,WUHU216HW,2013-08-18 14:11:00,
2013-08-18 07:16:00,53.8,44.7,30.14,North,0,0.0,0.0,71,0.00,,,0.00,WUHU216HW,2013-08-18 14:16:00,
2013-08-18 07:21:00,54.2,45.0,30.14,North,0,0.0,0.0,71,0.00,,,0.00,WUHU216HW,2013-08-18 14:21:00,
2013-08-18 07:26:00,54.2,45.0,30.14,North,0,0.0,0.0,71,0.00,,,0.00,WUHU216HW,2013-08-18 14:26:00,
2013-08-18 07:31:00,54.4,45.9,30.15,North,0,0.0,0.0,73,0.00,,,0.00,WUHU216HW,2013-08-18 14:31:00,
2013-08-18 07:36:00,54.5,46.1,30.15,North,0,0.0,0.0,73,0.00,,,0.00,WUHU216HW,2013-08-18 14:36:00,
2013-08-18 07:41:00,54.7,46.3,30.15,North,0,0.0,0.0,73,0.00,,,0.00,WUHU216HW,2013-08-18 14:41:00,
2013-08-18 07:46:00,54.9,46.5,30.14,North,0,0.0,0.0,73,0.00,,,0.00,WUHU216HW,2013-08-18 14:46:00,
2013-08-18 07:52:00,54.9,46.5,30.15,North,0,0.0,0.0,73,0.00,,,0.00,WUHU216HW,2013-08-18 14:52:00,
2013-08-18 07:57:00,54.9,46.5,30.15,North,0,0.0,0.0,73,0.00,,,0.00,WUHU216HW,2013-08-18 14:57:00,
2013-08-18 08:02:00,55.1,46.6,30.15,North,0,0.0,0.0,73,0.00,,,0.00,WUHU216HW,2013-08-18 15:02:00,
2013-08-18 08:07:00,55.1,46.6,30.15,North,0,0.0,0.0,73,0.00,,,0.00,WUHU216HW,2013-08-18 15:07:00,
2013-08-18 08:12:00,55.3,46.7,30.15,North,0,0.0,0.0,73,0.00,,,0.00,WUHU216HW,2013-08-18 15:12:00,
2013-08-18 08:17:00,55.6,47.1,30.15,North,0,0.0,0.0,73,0.00,,,0.00,WUHU216HW,2013-08-18 15:17:00,
2013-08-18 08:22:00,55.8,47.3,30.15,North,0,0.0,0.0,73,0.00,,,0.00,WUHU216HW,2013-08-18 15:22:00,
2013-08-18 08:27:00,56.3,47.8,30.15,North,0,0.0,0.0,73,0.00,,,0.00,WUHU216HW,2013-08-18 15:27:00,
2013-08-18 08:32:00,56.5,47.6,30.15,North,0,0.0,0.0,72,0.00,,,0.00,WUHU216HW,2013-08-18 15:32:00,
2013-08-18 08:37:00,56.9,47.9,30.15,North,0,0.0,0.0,72,0.00,,,0.00,WUHU216HW,2013-08-18 15:37:00,
2013-08-18 08:42:00,57.1,47.7,30.15,North,0,0.0,0.0,71,0.00,,,0.00,WUHU216HW,2013-08-18 15:42:00,
2013-08-18 08:47:00,57.6,48.2,30.15,North,0,0.0,0.0,71,0.00,,,0.00,WUHU216HW,2013-08-18 15:47:00,
2013-08-18 08:52:00,58.1,48.8,30.15,North,0,0.0,0.0,71,0.00,,,0.00,WUHU216HW,2013-08-18 15:52:00,
2013-08-18 08:57:00,58.7,49.0,30.15,North,0,0.0,0.0,70,0.00,,,0.00,WUHU216HW,2013-08-18 15:57:00,
2013-08-18 09:02:00,59.4,49.2,30.15,North,0,0.0,0.0,69,0.00,,,0.00,WUHU216HW,2013-08-18 16:02:00,
2013-08-18 09:07:00,59.8,49.2,30.16,North,0,0.0,0.0,68,0.00,,,0.00,WUHU216HW,2013-08-18 16:07:00,
2013-08-18 09:12:00,60.1,49.6,30.15,North,0,0.0,0.0,68,0.00,,,0.00,WUHU216HW,2013-08-18 16:12:00,
2013-08-18 09:17:00,60.7,49.7,30.15,North,0,0.0,0.0,67,0.00,,,0.00,WUHU216HW,2013-08-18 16:17:00,
2013-08-18 09:22:00,60.8,49.9,30.15,North,0,0.0,0.0,67,0.00,,,0.00,WUHU216HW,2013-08-18 16:22:00,
2013-08-18 09:28:00,61.4,50.4,30.15,North,0,0.0,0.0,67,0.00,,,0.00,WUHU216HW,2013-08-18 16:28:00,
2013-08-18 09:33:00,61.9,50.4,30.15,North,0,0.0,0.0,66,0.00,,,0.00,WUHU216HW,2013-08-18 16:33:00,
2013-08-18 09:38:00,62.5,50.5,30.15,North,0,0.0,0.0,65,0.00,,,0.00,WUHU216HW,2013-08-18 16:38:00,
2013-08-18 09:43:00,63.0,51.0,30.15,North,0,0.0,0.0,65,0.00,,,0.00,WUHU216HW,2013-08-18 16:43:00,
2013-08-18 09:48:00,63.5,50.7,30.15,North,0,0.0,0.0,63,0.00,,,0.00,WUHU216HW,2013-08-18 16:48:00,
2013-08-18 09:53:00,63.9,51.0,30.15,North,0,0.0,0.0,63,0.00,,,0.00,WUHU216HW,2013-08-18 16:53:00,
2013-08-18 09:58:00,64.4,51.1,30.15,North,0,0.0,0.0,62,0.00,,,0.00,WUHU216HW,2013-08-18 16:58:00,
2013-08-18 10:03:00,65.0,50.8,30.15,North,0,0.0,0.0,60,0.00,,,0.00,WUHU216HW,2013-08-18 17:03:00,
2013-08-18 10:08:00,65.3,51.1,30.15,North,0,0.0,0.0,60,0.00,,,0.00,WUHU216HW,2013-08-18 17:08:00,
2013-08-18 10:13:00,65.9,49.7,30.15,North,0,0.0,0.0,56,0.00,,,0.00,WUHU216HW,2013-08-18 17:13:00,
2013-08-18 10:18:00,66.2,51.0,30.15,North,0,0.0,0.0,58,0.00,,,0.00,WUHU216HW,2013-08-18 17:18:00,
2013-08-18 10:23:00,66.6,51.4,30.15,North,0,0.0,0.0,58,0.00,,,0.00,WUHU216HW,2013-08-18 17:23:00,
2013-08-18 10:28:00,67.3,51.0,30.15,North,0,0.0,0.0,56,0.00,,,0.00,WUHU216HW,2013-08-18 17:28:00,
2013-08-18 10:33:00,67.7,50.9,30.15,North,0,0.0,0.0,55,0.00,,,0.00,WUHU216HW,2013-08-18 17:33:00,
2013-08-18 10:38:00,68.0,49.8,30.15,North,0,0.0,0.0,52,0.00,,,0.00,WUHU216HW,2013-08-18 17:38:00,
2013-08-18 10:43:00,68.8,50.0,30.15,North,0,0.0,0.0,51,0.00,,,0.00,WUHU216HW,2013-08-18 17:43:00,
2013-08-18 10:48:00,69.1,50.2,30.15,North,0,0.0,0.0,51,0.00,,,0.00,WUHU216HW,2013-08-18 17:48:00,
2013-08-18 10:53:00,69.5,50.6,30.14,North,0,0.0,0.0,51,0.00,,,0.00,WUHU216HW,2013-08-18 17:53:00,
2013-08-18 10:58:00,70.0,50.6,30.14,North,0,0.0,0.0,50,0.00,,,0.00,WUHU216HW,2013-08-18 17:58:00,
2013-08-18 11:03:00,70.6,48.1,30.14,North,0,0.0,0.0,45,0.00,,,0.00,WUHU216HW,2013-08-18 18:03:00,
2013-08-18 11:08:00,71.1,49.1,30.14,North,0,0.0,0.0,46,0.00,,,0.00,WUHU216HW,2013-08-18 18:08:00,
2013-08-18 11:14:00,71.5,48.9,30.14,North,0,0.0,0.0,45,0.00,,,0.00,WUHU216HW,2013-08-18 18:14:00,
2013-08-18 11:19:00,71.6,49.1,30.14,North,0,0.0,0.0,45,0.00,,,0.00,WUHU216HW,2013-08-18 18:19:00,
2013-08-18 11:24:00,72.4,47.9,30.14,North,0,0.0,0.0,42,0.00,,,0.00,WUHU216HW,2013-08-18 18:24:00,
2013-08-18 11:29:00,72.9,47.3,30.14,North,0,0.0,0.0,40,0.00,,,0.00,WUHU216HW,2013-08-18 18:29:00,
2013-08-18 11:34:00,73.1,46.6,30.14,North,0,0.0,0.0,39,0.00,,,0.00,WUHU216HW,2013-08-18 18:34:00,
2013-08-18 11:39:00,73.6,43.3,30.14,North,0,0.0,0.0,34,0.00,,,0.00,WUHU216HW,2013-08-18 18:39:00,
2013-08-18 11:44:00,73.8,46.5,30.14,North,0,0.0,0.0,38,0.00,,,0.00,WUHU216HW,2013-08-18 18:44:00,
2013-08-18 11:49:00,74.2,46.1,30.14,North,0,0.0,0.0,37,0.00,,,0.00,WUHU216HW,2013-08-18 18:49:00,
2013-08-18 11:54:00,74.5,44.9,30.14,North,0,0.0,0.0,35,0.00,,,0.00,WUHU216HW,2013-08-18 18:54:00,
2013-08-18 11:59:00,74.7,45.1,30.13,North,0,0.0,0.0,35,0.00,,,0.00,WUHU216HW,2013-08-18 18:59:00,
2013-08-18 12:04:00,75.1,44.7,30.13,North,0,0.0,0.0,34,0.00,,,0.00,WUHU216HW,2013-08-18 19:04:00,
2013-08-18 12:09:00,75.4,42.0,30.13,North,0,0.0,0.0,30,0.00,,,0.00,WUHU216HW,2013-08-18 19:09:00,
2013-08-18 12:14:00,75.8,41.2,30.13,North,0,0.0,0.0,29,0.00,,,0.00,WUHU216HW,2013-08-18 19:14:00,
2013-08-18 12:19:00,76.1,41.6,30.13,North,0,0.0,0.0,29,0.00,,,0.00,WUHU216HW,2013-08-18 19:19:00,
2013-08-18 12:24:00,76.1,41.6,30.13,North,0,0.0,0.0,29,0.00,,,0.00,WUHU216HW,2013-08-18 19:24:00,
2013-08-18 12:29:00,76.3,38.6,30.13,North,0,0.0,0.0,26,0.00,,,0.00,WUHU216HW,2013-08-18 19:29:00,
2013-08-18 12:34:00,76.7,41.0,30.13,North,0,0.0,0.0,28,0.00,,,0.00,WUHU216HW,2013-08-18 19:34:00,
2013-08-18 12:39:00,77.2,42.5,30.13,North,0,0.0,0.0,29,0.00,,,0.00,WUHU216HW,2013-08-18 19:39:00,
2013-08-18 12:44:00,78.1,43.2,30.13,North,0,0.0,0.0,29,0.00,,,0.00,WUHU216HW,2013-08-18 19:44:00,
2013-08-18 12:49:00,78.5,44.6,30.13,North,0,0.0,0.0,30,0.00,,,0.00,WUHU216HW,2013-08-18 19:49:00,
2013-08-18 12:55:00,78.5,40.3,30.12,North,0,0.0,0.0,26,0.00,,,0.00,WUHU216HW,2013-08-18 19:55:00,
2013-08-18 13:00:00,78.3,43.4,30.12,North,0,0.0,0.0,29,0.00,,,0.00,WUHU216HW,2013-08-18 20:00:00,
2013-08-18 13:05:00,78.5,43.5,30.12,North,0,0.0,0.0,29,0.00,,,0.00,WUHU216HW,2013-08-18 20:05:00,
2013-08-18 13:10:00,78.7,44.6,30.12,North,0,0.0,0.0,30,0.00,,,0.00,WUHU216HW,2013-08-18 20:10:00,
2013-08-18 13:15:00,79.2,45.2,30.12,North,0,0.0,0.0,30,0.00,,,0.00,WUHU216HW,2013-08-18 20:15:00,
2013-08-18 13:20:00,79.6,45.5,30.12,North,0,0.0,0.0,30,0.00,,,0.00,WUHU216HW,2013-08-18 20:20:00,
2013-08-18 13:25:00,79.7,41.5,30.12,North,0,0.0,0.0,26,0.00,,,0.00,WUHU216HW,2013-08-18 20:25:00,
2013-08-18 13:30:00,79.9,44.7,30.12,North,0,0.0,0.0,29,0.00,,,0.00,WUHU216HW,2013-08-18 20:30:00,
2013-08-18 13:35:00,80.3,44.0,30.12,North,0,0.0,0.0,28,0.00,,,0.00,WUHU216HW,2013-08-18 20:35:00,
2013-08-18 13:40:00,80.1,44.9,30.12,North,0,0.0,0.0,29,0.00,,,0.00,WUHU216HW,2013-08-18 20:40:00,
2013-08-18 13:45:00,80.1,46.0,30.12,North,0,0.0,0.0,30,0.00,,,0.00,WUHU216HW,2013-08-18 20:45:00,
2013-08-18 13:50:00,80.5,45.3,30.12,North,0,0.0,0.0,29,0.00,,,0.00,WUHU216HW,2013-08-18 20:50:00,
2013-08-18 13:55:00,80.3,41.9,30.12,North,0,0.0,0.0,26,0.00,,,0.00,WUHU216HW,2013-08-18 20:55:00,
2013-08-18 14:00:00,80.3,44.0,30.12,North,0,0.0,0.0,28,0.00,,,0.00,WUHU216HW,2013-08-18 21:00:00,
2013-08-18 14:05:00,80.8,44.5,30.12,North,0,0.0,0.0,28,0.00,,,0.00,WUHU216HW,2013-08-18 21:05:00,
2013-08-18 14:10:00,81.4,46.0,30.11,North,0,0.0,0.0,29,0.00,,,0.00,WUHU216HW,2013-08-18 21:10:00,
2013-08-18 14:15:00,81.7,46.3,30.11,North,0,0.0,0.0,29,0.00,,,0.00,WUHU216HW,2013-08-18 21:15:00,
2013-08-18 14:20:00,81.7,43.1,30.11,North,0,0.0,0.0,26,0.00,,,0.00,WUHU216HW,2013-08-18 21:20:00,
2013-08-18 14:25:00,81.5,40.9,30.11,North,0,0.0,0.0,24,0.00,,,0.00,WUHU216HW,2013-08-18 21:25:00,
2013-08-18 14:30:00,81.2,42.7,30.11,North,0,0.0,0.0,26,0.00,,,0.00,WUHU216HW,2013-08-18 21:30:00,
2013-08-18 14:35:00,81.4,42.8,30.11,North,0,0.0,0.0,26,0.00,,,0.00,WUHU216HW,2013-08-18 21:35:00,
2013-08-18 14:41:00,81.4,42.8,30.11,North,0,0.0,0.0,26,0.00,,,0.00,WUHU216HW,2013-08-18 21:41:00,
2013-08-18 14:46:00,81.5,43.0,30.11,North,0,0.0,0.0,26,0.00,,,0.00,WUHU216HW,2013-08-18 21:46:00,
2013-08-18 14:51:00,81.7,43.1,30.11,North,0,0.0,0.0,26,0.00,,,0.00,WUHU216HW,2013-08-18 21:51:00,
2013-08-18 14:56:00,82.1,42.4,30.11,North,0,0.0,0.0,25,0.00,,,0.00,WUHU216HW,2013-08-18 21:56:00,
2013-08-18 15:01:00,82.4,43.8,30.10,North,0,0.0,0.0,26,0.00,,,0.00,WUHU216HW,2013-08-18 22:01:00,
2013-08-18 15:06:00,82.6,42.9,30.10,North,0,0.0,0.0,25,0.00,,,0.00,WUHU216HW,2013-08-18 22:06:00,
2013-08-18 15:11:00,82.4,43.8,30.10,North,0,0.0,0.0,26,0.00,,,0.00,WUHU216HW,2013-08-18 22:11:00,
2013-08-18 15:16:00,82.6,43.8,30.10,North,0,0.0,0.0,26,0.00,,,0.00,WUHU216HW,2013-08-18 22:16:00,
2013-08-18 15:21:00,82.8,46.1,30.10,North,0,0.0,0.0,28,0.00,,,0.00,WUHU216HW,2013-08-18 22:21:00,
2013-08-18 15:26:00,82.8,42.9,30.10,North,0,0.0,0.0,25,0.00,,,0.00,WUHU216HW,2013-08-18 22:26:00,
2013-08-18 15:31:00,83.0,44.2,30.10,North,0,0.0,0.0,26,0.00,,,0.00,WUHU216HW,2013-08-18 22:31:00,
2013-08-18 15:36:00,83.0,44.2,30.09,North,0,0.0,0.0,26,0.00,,,0.00,WUHU216HW,2013-08-18 22:36:00,
2013-08-18 15:41:00,82.8,42.9,30.09,North,0,0.0,0.0,25,0.00,,,0.00,WUHU216HW,2013-08-18 22:41:00,
2013-08-18 15:46:00,82.3,43.6,30.09,North,0,0.0,0.0,26,0.00,,,0.00,WUHU216HW,2013-08-18 22:46:00,
2013-08-18 15:51:00,82.6,46.0,30.09,North,0,0.0,0.0,28,0.00,,,0.00,WUHU216HW,2013-08-18 22:51:00,
2013-08-18 15:56:00,83.2,46.5,30.09,North,0,0.0,0.0,28,0.00,,,0.00,WUHU216HW,2013-08-18 22:56:00,
2013-08-18 16:01:00,83.5,46.7,30.09,North,0,0.0,0.0,28,0.00,,,0.00,WUHU216HW,2013-08-18 23:01:00,
2013-08-18 16:06:00,83.7,48.0,30.09,North,0,0.0,0.0,29,0.00,,,0.00,WUHU216HW,2013-08-18 23:06:00,
2013-08-18 16:11:00,83.5,46.7,30.09,North,0,0.0,0.0,28,0.00,,,0.00,WUHU216HW,2013-08-18 23:11:00,
2013-08-18 16:16:00,83.7,46.9,30.09,North,0,0.0,0.0,28,0.00,,,0.00,WUHU216HW,2013-08-18 23:16:00,
2013-08-18 16:22:00,84.1,48.2,30.08,North,0,0.0,0.0,29,0.00,,,0.00,WUHU216HW,2013-08-18 23:22:00,
2013-08-18 16:27:00,84.2,45.3,30.08,North,0,0.0,0.0,26,0.00,,,0.00,WUHU216HW,2013-08-18 23:27:00,
2013-08-18 16:32:00,84.4,45.5,30.08,North,0,0.0,0.0,26,0.00,,,0.00,WUHU216HW,2013-08-18 23:32:00,
2013-08-18 16:37:00,84.6,45.5,30.08,North,0,0.0,0.0,26,0.00,,,0.00,WUHU216HW,2013-08-18 23:37:00,
2013-08-18 16:42:00,84.4,45.5,30.08,North,0,0.0,0.0,26,0.00,,,0.00,WUHU216HW,2013-08-18 23:42:00,
2013-08-18 16:47:00,84.2,47.3,30.08,North,0,0.0,0.0,28,0.00,,,0.00,WUHU216HW,2013-08-18 23:47:00,
2013-08-18 16:52:00,84.1,47.3,30.08,North,0,0.0,0.0,28,0.00,,,0.00,WUHU216HW,2013-08-18 23:52:00,
2013-08-18 16:57:00,84.1,47.3,30.08,North,0,0.0,0.0,28,0.00,,,0.00,WUHU216HW,2013-08-18 23:57:00,
2013-08-18 17:02:00,84.2,47.3,30.08,North,0,0.0,0.0,28,0.00,,,0.00,WUHU216HW,2013-08-19 00:02:00,
2013-08-18 17:07:00,84.2,45.3,30.08,North,0,0.0,0.0,26,0.00,,,0.00,WUHU216HW,2013-08-19 00:07:00,
2013-08-18 17:12:00,84.1,44.0,30.08,North,0,0.0,0.0,25,0.00,,,0.00,WUHU216HW,2013-08-19 00:12:00,
2013-08-18 17:17:00,84.1,46.2,30.08,North,0,0.0,0.0,27,0.00,,,0.00,WUHU216HW,2013-08-19 00:17:00,
2013-08-18 17:22:00,84.6,45.5,30.08,North,0,0.0,0.0,26,0.00,,,0.00,WUHU216HW,2013-08-19 00:22:00,
2013-08-18 17:27:00,84.4,45.5,30.08,North,0,0.0,0.0,26,0.00,,,0.00,WUHU216HW,2013-08-19 00:27:00,
2013-08-18 17:32:00,84.4,45.5,30.08,North,0,0.0,0.0,26,0.00,,,0.00,WUHU216HW,2013-08-19 00:32:00,
2013-08-18 17:37:00,84.2,45.3,30.08,North,0,0.0,0.0,26,0.00,,,0.00,WUHU216HW,2013-08-19 00:37:00,
2013-08-18 17:42:00,84.2,47.3,30.08,North,0,0.0,0.0,28,0.00,,,0.00,WUHU216HW,2013-08-19 00:42:00,
2013-08-18 17:47:00,84.4,45.5,30.08,North,0,0.0,0.0,26,0.00,,,0.00,WUHU216HW,2013-08-19 00:47:00,
2013-08-18 17:52:00,84.2,45.3,30.08,North,0,0.0,0.0,26,0.00,,,0.00,WUHU216HW,2013-08-19 00:52:00,
2013-08-18 17:57:00,83.9,44.9,30.08,North,0,0.0,0.0,26,0.00,,,0.00,WUHU216HW,2013-08-19 00:57:00,
2013-08-18 18:02:00,83.9,47.1,30.08,North,0,0.0,0.0,28,0.00,,,0.00,WUHU216HW,2013-08-19 01:02:00,
2013-08-18 18:08:00,83.3,46.6,30.08,North,0,0.0,0.0,28,0.00,,,0.00,WUHU216HW,2013-08-19 01:08:00,
2013-08-18 18:13:00,82.8,47.2,30.08,North,0,0.0,0.0,29,0.00,,,0.00,WUHU216HW,2013-08-19 01:13:00,
2013-08-18 18:18:00,82.6,47.0,30.08,North,0,0.0,0.0,29,0.00,,,0.00,WUHU216HW,2013-08-19 01:18:00,
2013-08-18 18:23:00,82.4,47.9,30.08,North,0,0.0,0.0,30,0.00,,,0.00,WUHU216HW,2013-08-19 01:23:00,
2013-08-18 18:28:00,82.4,47.9,30.08,North,0,0.0,0.0,30,0.00,,,0.00,WUHU216HW,2013-08-19 01:28:00,
2013-08-18 18:33:00,81.9,48.3,30.08,North,0,0.0,0.0,31,0.00,,,0.00,WUHU216HW,2013-08-19 01:33:00,
2013-08-18 18:38:00,81.4,48.6,30.08,North,0,0.0,0.0,32,0.00,,,0.00,WUHU216HW,2013-08-19 01:38:00,
2013-08-18 18:43:00,81.2,48.4,30.08,North,0,0.0,0.0,32,0.00,,,0.00,WUHU216HW,2013-08-19 01:43:00,
2013-08-18 18:48:00,81.0,49.1,30.08,North,0,0.0,0.0,33,0.00,,,0.00,WUHU216HW,2013-08-19 01:48:00,
2013-08-18 18:53:00,80.8,48.9,30.09,North,0,0.0,0.0,33,0.00,,,0.00,WUHU216HW,2013-08-19 01:53:00,
2013-08-18 18:58:00,80.6,49.5,30.08,North,0,0.0,0.0,34,0.00,,,0.00,WUHU216HW,2013-08-19 01:58:00,
2013-08-18 19:03:00,80.5,48.6,30.08,North,0,0.0,0.0,33,0.00,,,0.00,WUHU216HW,2013-08-19 02:03:00,
2013-08-18 19:08:00,80.1,49.1,30.09,North,0,0.0,0.0,34,0.00,,,0.00,WUHU216HW,2013-08-19 02:08:00,
2013-08-18 19:13:00,79.7,49.5,30.09,North,0,0.0,0.0,35,0.00,,,0.00,WUHU216HW,2013-08-19 02:13:00,
2013-08-18 19:18:00,79.2,49.1,30.09,North,0,0.0,0.0,35,0.00,,,0.00,WUHU216HW,2013-08-19 02:18:00,
2013-08-18 19:23:00,79.0,50.4,30.09,North,0,0.0,0.0,37,0.00,,,0.00,WUHU216HW,2013-08-19 02:23:00,
2013-08-18 19:28:00,78.7,50.0,30.09,North,0,0.0,0.0,37,0.00,,,0.00,WUHU216HW,2013-08-19 02:28:00,
2013-08-18 19:33:00,78.3,50.6,30.09,North,0,0.0,0.0,38,0.00,,,0.00,WUHU216HW,2013-08-19 02:33:00,
2013-08-18 19:38:00,77.8,50.0,30.09,North,0,0.0,0.0,38,0.00,,,0.00,WUHU216HW,2013-08-19 02:38:00,
2013-08-18 19:43:00,77.6,49.9,30.09,North,0,0.0,0.0,38,0.00,,,0.00,WUHU216HW,2013-08-19 02:43:00,
2013-08-18 19:48:00,77.2,50.3,30.09,North,0,0.0,0.0,39,0.00,,,0.00,WUHU216HW,2013-08-19 02:48:00,
2013-08-18 19:53:00,76.9,50.1,30.09,North,0,0.0,0.0,39,0.00,,,0.00,WUHU216HW,2013-08-19 02:53:00,
2013-08-18 19:58:00,76.7,50.6,30.09,North,0,0.0,0.0,40,0.00,,,0.00,WUHU216HW,2013-08-19 02:58:00,
2013-08-18 20:03:00,76.1,50.1,30.09,North,0,0.0,0.0,40,0.00,,,0.00,WUHU216HW,2013-08-19 03:03:00,
2013-08-18 20:08:00,75.8,49.8,30.09,North,0,0.0,0.0,40,0.00,,,0.00,WUHU216HW,2013-08-19 03:08:00,
2013-08-18 20:13:00,75.6,49.7,30.09,North,0,0.0,0.0,40,0.00,,,0.00,WUHU216HW,2013-08-19 03:13:00,
2013-08-18 20:18:00,75.6,49.7,30.10,North,0,0.0,0.0,40,0.00,,,0.00,WUHU216HW,2013-08-19 03:18:00,
2013-08-18 20:23:00,75.6,49.7,30.10,North,0,0.0,0.0,40,0.00,,,0.00,WUHU216HW,2013-08-19 03:23:00,
2013-08-18 20:28:00,75.2,50.0,30.10,North,0,0.0,0.0,41,0.00,,,0.00,WUHU216HW,2013-08-19 03:28:00,
2013-08-18 20:33:00,74.7,49.4,30.11,North,0,0.0,0.0,41,0.00,,,0.00,WUHU216HW,2013-08-19 03:33:00,
2013-08-18 20:38:00,74.2,49.6,30.11,North,0,0.0,0.0,42,0.00,,,0.00,WUHU216HW,2013-08-19 03:38:00,
2013-08-18 20:43:00,73.8,49.9,30.11,North,0,0.0,0.0,43,0.00,,,0.00,WUHU216HW,2013-08-19 03:43:00,
2013-08-18 20:48:00,73.6,50.2,30.11,North,0,0.0,0.0,44,0.00,,,0.00,WUHU216HW,2013-08-19 03:48:00,
2013-08-18 20:53:00,73.3,49.3,30.11,North,0,0.0,0.0,43,0.00,,,0.00,WUHU216HW,2013-08-19 03:53:00,
2013-08-18 20:58:00,73.1,49.8,30.11,North,0,0.0,0.0,44,0.00,,,0.00,WUHU216HW,2013-08-19 03:58:00,
2013-08-18 21:01:00,72.7,49.4,30.11,North,0,0.0,0.0,44,0.00,,,0.00,WUHU216HW,2013-08-19 04:01:00,
2013-08-18 21:02:00,72.7,50.1,30.11,North,0,0.0,0.0,45,0.00,,,0.00,WUHU216HW,2013-08-19 04:02:00,
2013-08-18 21:07:00,72.5,49.9,30.11,North,0,0.0,0.0,45,0.00,,,0.00,WUHU216HW,2013-08-19 04:07:00,
2013-08-18 21:12:00,72.0,50.0,30.11,North,0,0.0,0.0,46,0.00,,,0.00,WUHU216HW,2013-08-19 04:12:00,
2013-08-18 21:17:00,71.6,49.7,30.11,North,0,0.0,0.0,46,0.00,,,0.00,WUHU216HW,2013-08-19 04:17:00,
2013-08-18 21:22:00,71.5,50.0,30.12,North,0,0.0,0.0,47,0.00,,,0.00,WUHU216HW,2013-08-19 04:22:00,
2013-08-18 21:27:00,71.1,49.8,30.12,North,0,0.0,0.0,47,0.00,,,0.00,WUHU216HW,2013-08-19 04:27:00,
2013-08-18 21:32:00,71.1,49.8,30.12,North,0,0.0,0.0,47,0.00,,,0.00,WUHU216HW,2013-08-19 04:32:00,
2013-08-18 21:37:00,70.9,49.6,30.12,North,0,0.0,0.0,47,0.00,,,0.00,WUHU216HW,2013-08-19 04:37:00,
2013-08-18 21:42:00,70.7,50.1,30.12,North,0,0.0,0.0,48,0.00,,,0.00,WUHU216HW,2013-08-19 04:42:00,
2013-08-18 21:47:00,70.4,49.7,30.12,North,0,0.0,0.0,48,0.00,,,0.00,WUHU216HW,2013-08-19 04:47:00,
2013-08-18 21:52:00,70.2,50.1,30.12,North,0,0.0,0.0,49,0.00,,,0.00,WUHU216HW,2013-08-19 04:52:00,
2013-08-18 21:57:00,69.8,50.4,30.12,North,0,0.0,0.0,50,0.00,,,0.00,WUHU216HW,2013-08-19 04:57:00,
2013-08-18 22:02:00,69.8,50.4,30.12,North,0,0.0,0.0,50,0.00,,,0.00,WUHU216HW,2013-08-19 05:02:00,
2013-08-18 22:07:00,69.7,50.2,30.12,North,0,0.0,0.0,50,0.00,,,0.00,WUHU216HW,2013-08-19 05:07:00,
2013-08-18 22:12:00,69.7,49.7,30.12,North,0,0.0,0.0,49,0.00,,,0.00,WUHU216HW,2013-08-19 05:12:00,
2013-08-18 22:17:00,69.5,49.5,30.12,North,0,0.0,0.0,49,0.00,,,0.00,WUHU216HW,2013-08-19 05:17:00,
2013-08-18 22:22:00,69.5,48.9,30.13,North,0,0.0,0.0,48,0.00,,,0.00,WUHU216HW,2013-08-19 05:22:00,
2013-08-18 22:27:00,69.1,49.1,30.13,North,0,0.0,0.0,49,0.00,,,0.00,WUHU216HW,2013-08-19 05:27:00,
2013-08-18 22:32:00,68.9,49.0,30.13,North,0,0.0,0.0,49,0.00,,,0.00,WUHU216HW,2013-08-19 05:32:00,
2013-08-18 22:37:00,68.6,48.7,30.13,North,0,0.0,0.0,49,0.00,,,0.00,WUHU216HW,2013-08-19 05:37:00,
2013-08-18 22:42:00,68.4,48.5,30.13,North,0,0.0,0.0,49,0.00,,,0.00,WUHU216HW,2013-08-19 05:42:00,
2013-08-18 22:47:00,68.2,48.3,30.13,North,0,0.0,0.0,49,0.00,,,0.00,WUHU216HW,2013-08-19 05:47:00,
2013-08-18 22:52:00,68.0,48.8,30.13,North,0,0.0,0.0,50,0.00,,,0.00,WUHU216HW,2013-08-19 05:52:00,
2013-08-18 22:57:00,67.9,48.6,30.13,North,0,0.0,0.0,50,0.00,,,0.00,WUHU216HW,2013-08-19 05:57:00,
2013-08-18 23:02:00,67.3,48.6,30.13,North,0,0.0,0.0,51,0.00,,,0.00,WUHU216HW,2013-08-19 06:02:00,
2013-08-18 23:07:00,66.8,48.6,30.13,North,0,0.0,0.0,52,0.00,,,0.00,WUHU216HW,2013-08-19 06:07:00,
2013-08-18 23:12:00,66.6,48.4,30.13,North,0,0.0,0.0,52,0.00,,,0.00,WUHU216HW,2013-08-19 06:12:00,
2013-08-18 23:18:00,66.4,48.3,30.13,North,0,0.0,0.0,52,0.00,,,0.00,WUHU216HW,2013-08-19 06:18:00,
2013-08-18 23:23:00,66.2,48.2,30.13,North,0,0.0,0.0,52,0.00,,,0.00,WUHU216HW,2013-08-19 06:23:00,
2013-08-18 23:28:00,66.1,48.0,30.13,North,0,0.0,0.0,52,0.00,,,0.00,WUHU216HW,2013-08-19 06:28:00,
2013-08-18 23:33:00,65.7,48.1,30.14,North,0,0.0,0.0,53,0.00,,,0.00,WUHU216HW,2013-08-19 06:33:00,
2013-08-18 23:38:00,65.3,48.3,30.14,North,0,0.0,0.0,54,0.00,,,0.00,WUHU216HW,2013-08-19 06:38:00,
2013-08-18 23:43:00,65.3,48.3,30.13,North,0,0.0,0.0,54,0.00,,,0.00,WUHU216HW,2013-08-19 06:43:00,
2013-08-18 23:48:00,64.8,47.7,30.14,North,0,0.0,0.0,54,0.00,,,0.00,WUHU216HW,2013-08-19 06:48:00,
2013-08-18 23:53:00,64.6,48.0,30.14,North,0,0.0,0.0,55,0.00,,,0.00,WUHU216HW,2013-08-19 06:53:00,
2013-08-18 23:58:00,64.6,48.0,30.14,North,0,0.0,0.0,55,0.00,,,0.00,WUHU216HW,2013-08-19 06:58:00,